Powrót do katalogu

COSMOS 1527

AktywnyMilitariaLEO
NORAD 14616·PAYLOAD·🇷🇺 Russia

Wystrzelony Jan 5, 1984 z Plesetsk Cosmodrome

Loading…

Następne Przeloty (najbliższe 24 godziny)

TLE

ŚwieżeSource: Space-Track

Epoka: Sep 14, 2026, 09:47 UTC

1 14616U 84001F   26257.40769973  .00000008  00000-0  15755-3 0  9992
2 14616  74.0088 149.1178 0001718 356.3207 120.6635 12.51105839538533

Śledź COSMOS 1527 w czasie rzeczywistym z AllMySat

Download on the App Store